Hourly Data Report for September 14, 2017

All times are specified in Local Standard Time (LST). Add 1 hour to adjust for Daylight Saving Time where and when it is observed.

PENTICTON A
BRITISH COLUMBIA

49°27'45.000" N
119°36'08.000" W
344.40 m
1126146
71889
YYF

Download Data

Hourly Data (September 2017)
Hourly Data Report for September 14, 2017
Temp Definition
°C
Dew Point Temp Definition
°C
Rel Hum Definition
%
Wind Dir Definition
10's deg

Wind Spd Definition
km/h
Visibility Definition
km
Stn Press Definition
kPa
Hmdx Definition


Wind Chill Definition


Weather Definition


TIME
00:00 Legend Double Dagger 11.0 1.5 52 2 9 24.1 97.42     LegendNANA
01:00 Legend Double Dagger 10.0 1.2 54 35 10 24.1 97.46     Clear
02:00 Legend Double Dagger 9.9 1.2 55 36 12 24.1 97.48     LegendNANA
03:00 Legend Double Dagger 8.8 1.1 58 35 14 24.1 97.51     LegendNANA
04:00 Legend Double Dagger 9.1 1.3 58 35 13 24.1 97.53     Clear
05:00 Legend Double Dagger 8.7 1.6 61 35 13 24.1 97.56     LegendNANA
06:00 Legend Double Dagger 6.9 1.1 66 36 11 24.1 97.61     LegendNANA
07:00 Legend Double Dagger 12.8 3.8 54 4 16 24.1 97.65     Mainly Clear
08:00 Legend Double Dagger 14.9 4.7 50 3 14 24.1 97.64     LegendNANA
09:00 Legend Double Dagger 17.1 3.0 39 1 24 24.1 97.62     LegendNANA
10:00 Legend Double Dagger 18.6 2.3 33 35 22 24.1 97.57     Clear
11:00 Legend Double Dagger 19.4 1.2 29 36 32 24.1 97.52     LegendNANA
12:00 Legend Double Dagger 20.8 0.3 25 33 31 24.1 97.48     LegendNANA
13:00 Legend Double Dagger 21.5 0.5 25 34 27 24.1 97.44     Clear
14:00 Legend Double Dagger 22.0 1.6 26 35 27 24.1 97.39     LegendNANA
15:00 Legend Double Dagger 22.1 1.5 25 36 27 24.1 97.35     LegendNANA
16:00 Legend Double Dagger 21.9 0.4 24 34 18 24.1 97.35     Clear
17:00 Legend Double Dagger 21.2 0.1 24 33 16 24.1 97.37     LegendNANA
18:00 Legend Double Dagger 19.4 -0.7 25 31 16 24.1 97.40     LegendNANA
19:00 Legend Double Dagger 17.6 0.9 32 2 16 24.1 97.46     Clear
20:00 Legend Double Dagger 14.2 0.8 40 3 10 24.1 97.52     LegendNANA
21:00 Legend Double Dagger 13.3 -0.3 39 1 11 24.1 97.55     LegendNANA
22:00 Legend Double Dagger 12.3 -1.0 40 36 13 24.1 97.59     Clear
23:00 Legend Double Dagger 10.2 -1.3 45 35 13 24.1 97.62     LegendNANA

Notes on Data Quality.

Legend

  • E = Estimated
  • M = Missing
  • NA = Not Available
  • ‡ = Partner data that is not subject to review by the National Climate Archives
Date modified: